Year,Month,Day,Hour,Minute,Value (Times are PST for barometer in hPa)
2020,11,17,00,00,996.36
2020,11,17,00,01,996.35
2020,11,17,00,02,996.43
2020,11,17,00,03,996.35
2020,11,17,00,04,996.28
2020,11,17,00,05,996.26
2020,11,17,00,06,996.24
2020,11,17,00,07,996.24
2020,11,17,00,08,996.10
2020,11,17,00,09,996.16
2020,11,17,00,10,996.13
2020,11,17,00,11,996.09
2020,11,17,00,12,996.02
2020,11,17,00,13,996.00
2020,11,17,00,14,996.11
2020,11,17,00,15,996.18
2020,11,17,00,16,996.10
2020,11,17,00,17,996.04
2020,11,17,00,18,996.00
2020,11,17,00,19,996.01
2020,11,17,00,20,995.82
2020,11,17,00,21,995.64
2020,11,17,00,22,995.46
2020,11,17,00,23,995.37
2020,11,17,00,24,995.40
2020,11,17,00,25,995.43
2020,11,17,00,26,995.54
2020,11,17,00,27,995.61
2020,11,17,00,28,995.49
2020,11,17,00,29,995.31
2020,11,17,00,30,995.27
2020,11,17,00,31,995.30
2020,11,17,00,32,995.32
2020,11,17,00,33,995.16
2020,11,17,00,34,994.90
2020,11,17,00,35,994.99
2020,11,17,00,36,994.94
2020,11,17,00,37,995.00
2020,11,17,00,38,994.98
2020,11,17,00,39,994.89
2020,11,17,00,40,994.86
2020,11,17,00,41,994.81
2020,11,17,00,42,994.82
2020,11,17,00,43,994.72
2020,11,17,00,44,994.70
2020,11,17,00,45,994.64
2020,11,17,00,46,994.54
2020,11,17,00,47,994.45
2020,11,17,00,48,994.47
2020,11,17,00,49,994.41
2020,11,17,00,50,994.49
2020,11,17,00,51,994.52
2020,11,17,00,52,994.50
2020,11,17,00,53,994.49
2020,11,17,00,54,994.58
2020,11,17,00,55,994.57
2020,11,17,00,56,994.52
2020,11,17,00,57,994.47
2020,11,17,00,58,994.52
2020,11,17,00,59,994.52
2020,11,17,01,00,994.57
2020,11,17,01,01,994.65
2020,11,17,01,02,994.61
2020,11,17,01,03,994.52
2020,11,17,01,04,994.45
2020,11,17,01,05,994.41
2020,11,17,01,06,994.31
2020,11,17,01,07,994.27
2020,11,17,01,08,994.30
2020,11,17,01,09,994.30
2020,11,17,01,10,994.36
2020,11,17,01,11,994.37
2020,11,17,01,12,994.32
2020,11,17,01,13,994.24
2020,11,17,01,14,994.20
2020,11,17,01,15,994.10
2020,11,17,01,16,994.03
2020,11,17,01,17,993.94
2020,11,17,01,18,993.95
2020,11,17,01,19,993.97
2020,11,17,01,20,993.92
2020,11,17,01,21,993.86
2020,11,17,01,22,993.93
2020,11,17,01,23,993.93
2020,11,17,01,24,993.86
2020,11,17,01,25,993.79
2020,11,17,01,26,993.73
2020,11,17,01,27,993.80
2020,11,17,01,28,993.79
2020,11,17,01,29,993.72
2020,11,17,01,30,993.63
2020,11,17,01,31,993.59
2020,11,17,01,32,993.49
2020,11,17,01,33,993.45
2020,11,17,01,34,993.35
2020,11,17,01,35,993.25
2020,11,17,01,36,993.22
2020,11,17,01,37,993.11
2020,11,17,01,38,992.98
2020,11,17,01,39,993.01
2020,11,17,01,40,992.98
2020,11,17,01,41,993.09
2020,11,17,01,42,993.16
2020,11,17,01,43,993.10
2020,11,17,01,44,993.15
2020,11,17,01,45,993.18
2020,11,17,01,46,993.18
2020,11,17,01,47,993.21
2020,11,17,01,48,993.17
2020,11,17,01,49,993.20
2020,11,17,01,50,993.21
2020,11,17,01,51,993.16
2020,11,17,01,52,993.11
2020,11,17,01,53,993.04
2020,11,17,01,54,993.07
2020,11,17,01,55,993.07
2020,11,17,01,56,993.02
2020,11,17,01,57,992.98
2020,11,17,01,58,992.96
2020,11,17,01,59,992.93
2020,11,17,02,00,992.88
2020,11,17,02,01,992.84
2020,11,17,02,02,992.78
2020,11,17,02,03,992.73
2020,11,17,02,04,992.67
2020,11,17,02,05,992.63
2020,11,17,02,06,992.61
2020,11,17,02,07,992.54
2020,11,17,02,08,992.47
2020,11,17,02,09,992.37
2020,11,17,02,10,992.36
2020,11,17,02,11,992.39
2020,11,17,02,12,992.42
2020,11,17,02,13,992.43
2020,11,17,02,14,992.43
2020,11,17,02,15,992.36
2020,11,17,02,16,992.31
2020,11,17,02,17,992.31
2020,11,17,02,18,992.28
2020,11,17,02,19,992.22
2020,11,17,02,20,992.20
2020,11,17,02,21,992.15
2020,11,17,02,22,992.14
2020,11,17,02,23,992.01
2020,11,17,02,24,991.99
2020,11,17,02,25,991.93
2020,11,17,02,26,991.92
2020,11,17,02,27,991.93
2020,11,17,02,28,991.92
2020,11,17,02,29,991.94
2020,11,17,02,30,991.90
2020,11,17,02,31,991.81
2020,11,17,02,32,991.76
2020,11,17,02,33,991.66
2020,11,17,02,34,991.62
2020,11,17,02,35,991.56
2020,11,17,02,36,991.48
2020,11,17,02,37,991.39
2020,11,17,02,38,991.38
2020,11,17,02,39,991.39
2020,11,17,02,40,991.36
2020,11,17,02,41,991.32
2020,11,17,02,42,991.28
2020,11,17,02,43,991.23
2020,11,17,02,44,991.23
2020,11,17,02,45,991.24
2020,11,17,02,46,991.27
2020,11,17,02,47,991.28
2020,11,17,02,48,991.22
2020,11,17,02,49,991.18
2020,11,17,02,50,991.09
2020,11,17,02,51,991.05
2020,11,17,02,52,991.06
2020,11,17,02,53,990.99
2020,11,17,02,54,990.96
2020,11,17,02,55,990.87
2020,11,17,02,56,990.81
2020,11,17,02,57,990.76
2020,11,17,02,58,990.70
2020,11,17,02,59,990.76
2020,11,17,03,00,990.78
2020,11,17,03,01,990.66
2020,11,17,03,02,990.62
2020,11,17,03,03,990.59
2020,11,17,03,04,990.52
2020,11,17,03,05,990.50
2020,11,17,03,06,990.44
2020,11,17,03,07,990.42
2020,11,17,03,08,990.41
2020,11,17,03,09,990.36
2020,11,17,03,10,990.31
2020,11,17,03,11,990.29
2020,11,17,03,12,990.31
2020,11,17,03,13,990.26
2020,11,17,03,14,990.21
2020,11,17,03,15,990.23
2020,11,17,03,16,990.26
2020,11,17,03,17,990.17
2020,11,17,03,18,990.11
2020,11,17,03,19,990.12
2020,11,17,03,20,990.16
2020,11,17,03,21,990.16
2020,11,17,03,22,990.13
2020,11,17,03,23,990.22
2020,11,17,03,24,990.26
2020,11,17,03,25,990.20
2020,11,17,03,26,990.16
2020,11,17,03,27,990.10
2020,11,17,03,28,990.07
2020,11,17,03,29,990.03
2020,11,17,03,30,989.98
2020,11,17,03,31,989.96
2020,11,17,03,32,989.94
2020,11,17,03,33,989.76
2020,11,17,03,34,989.68
2020,11,17,03,35,989.69
2020,11,17,03,36,989.64
2020,11,17,03,37,989.65
2020,11,17,03,38,989.68
2020,11,17,03,39,989.70
2020,11,17,03,40,989.71
2020,11,17,03,41,989.75
2020,11,17,03,42,989.73
2020,11,17,03,43,989.71
2020,11,17,03,44,989.57
2020,11,17,03,45,989.50
2020,11,17,03,46,989.47
2020,11,17,03,47,989.39
2020,11,17,03,48,989.36
2020,11,17,03,49,989.34
2020,11,17,03,50,989.39
2020,11,17,03,51,989.43
2020,11,17,03,52,989.38
2020,11,17,03,53,989.32
2020,11,17,03,54,989.28
2020,11,17,03,55,989.18
2020,11,17,03,56,989.04
2020,11,17,03,57,989.02
2020,11,17,03,58,989.05
2020,11,17,03,59,989.05
2020,11,17,04,00,989.10
2020,11,17,04,01,989.05
2020,11,17,04,02,988.96
2020,11,17,04,03,988.91
2020,11,17,04,04,988.79
2020,11,17,04,05,988.72
2020,11,17,04,06,988.71
2020,11,17,04,07,988.66
2020,11,17,04,08,988.56
2020,11,17,04,09,988.47
2020,11,17,04,10,988.41
2020,11,17,04,11,988.38
2020,11,17,04,12,988.33
2020,11,17,04,13,988.26
2020,11,17,04,14,988.22
2020,11,17,04,15,988.24
2020,11,17,04,16,988.22
2020,11,17,04,17,988.11
2020,11,17,04,18,988.11
2020,11,17,04,19,988.10
2020,11,17,04,20,988.08
2020,11,17,04,21,988.07
2020,11,17,04,22,988.02
2020,11,17,04,23,987.95
2020,11,17,04,53,986.69
2020,11,17,04,54,986.67
2020,11,17,04,55,986.59
2020,11,17,04,56,986.59
2020,11,17,04,57,986.57
2020,11,17,04,58,986.61
2020,11,17,04,59,986.55
2020,11,17,05,00,986.48
2020,11,17,05,01,986.39
2020,11,17,05,02,986.34
2020,11,17,05,03,986.29
2020,11,17,05,04,986.28
2020,11,17,05,05,986.25
2020,11,17,05,06,986.19
2020,11,17,05,07,985.98
2020,11,17,05,08,986.02
2020,11,17,05,09,985.98
2020,11,17,05,10,985.93
2020,11,17,05,11,985.84
2020,11,17,05,12,985.80
2020,11,17,05,13,985.73
2020,11,17,05,14,985.65
2020,11,17,05,15,985.67
2020,11,17,05,16,985.64
2020,11,17,05,17,985.61
2020,11,17,05,18,985.63
2020,11,17,05,19,985.57
2020,11,17,05,20,985.60
2020,11,17,05,21,985.78
2020,11,17,05,22,985.63
2020,11,17,05,23,985.54
2020,11,17,05,24,985.47
2020,11,17,05,25,985.26
2020,11,17,05,26,985.31
2020,11,17,05,27,985.09
2020,11,17,05,28,984.99
2020,11,17,05,29,984.94
2020,11,17,05,30,984.70
2020,11,17,05,31,984.52
2020,11,17,05,32,984.31
2020,11,17,05,33,984.26
2020,11,17,05,34,984.30
2020,11,17,05,35,984.22
2020,11,17,05,36,984.22
2020,11,17,05,37,984.24
2020,11,17,05,38,984.22
2020,11,17,05,39,984.19
2020,11,17,05,40,984.19
2020,11,17,05,41,984.02
2020,11,17,05,42,984.00
2020,11,17,05,43,984.12
2020,11,17,05,44,984.14
2020,11,17,05,45,983.99
2020,11,17,05,46,983.83
2020,11,17,05,47,983.95
2020,11,17,05,48,983.91
2020,11,17,05,49,983.82
2020,11,17,05,50,983.87
2020,11,17,05,51,983.77
2020,11,17,05,52,983.69
2020,11,17,05,53,983.57
2020,11,17,05,54,983.47
2020,11,17,05,55,983.22
2020,11,17,05,56,983.05
2020,11,17,05,57,982.92
2020,11,17,05,58,982.85
2020,11,17,05,59,982.50
2020,11,17,06,00,982.57
2020,11,17,06,01,982.62
2020,11,17,06,02,982.36
2020,11,17,06,03,982.55
2020,11,17,06,04,982.46
2020,11,17,06,05,982.23
2020,11,17,06,06,982.30
2020,11,17,06,07,982.14
2020,11,17,06,08,982.21
2020,11,17,06,09,982.14
2020,11,17,06,10,982.27
2020,11,17,06,11,982.29
2020,11,17,06,12,982.32
2020,11,17,06,13,982.29
2020,11,17,06,14,982.35
2020,11,17,06,15,982.58
2020,11,17,06,16,982.51
2020,11,17,06,17,982.40
2020,11,17,06,18,982.46
2020,11,17,06,19,982.47
2020,11,17,06,20,982.38
2020,11,17,06,21,982.57
2020,11,17,06,22,982.61
2020,11,17,06,23,982.44
2020,11,17,06,24,982.33
2020,11,17,06,25,982.61
2020,11,17,06,26,982.44
2020,11,17,06,27,982.33
2020,11,17,06,28,982.39
2020,11,17,06,29,982.33
2020,11,17,06,30,982.15
2020,11,17,06,31,982.36
2020,11,17,06,32,982.38
2020,11,17,06,33,982.32
2020,11,17,06,34,982.31
2020,11,17,06,35,982.28
2020,11,17,06,36,982.35
2020,11,17,06,37,982.26
2020,11,17,06,38,982.27
2020,11,17,06,39,982.35
2020,11,17,06,40,982.29
2020,11,17,06,41,982.27
2020,11,17,06,42,982.39
2020,11,17,06,43,982.55
2020,11,17,06,44,982.49
2020,11,17,07,47,991.94
2020,11,17,07,48,991.95
2020,11,17,07,49,991.97
2020,11,17,07,50,991.96
2020,11,17,07,51,992.01
2020,11,17,07,52,992.03
2020,11,17,07,53,992.08
2020,11,17,07,54,992.10
2020,11,17,07,55,992.14
2020,11,17,07,56,992.13
2020,11,17,07,57,992.11
2020,11,17,07,58,992.11
2020,11,17,07,59,992.15
2020,11,17,08,00,992.20
2020,11,17,08,01,992.20
2020,11,17,08,02,992.25
2020,11,17,08,03,992.25
2020,11,17,08,04,992.26
2020,11,17,08,05,992.30
2020,11,17,08,06,992.35
2020,11,17,08,07,992.35
2020,11,17,08,08,992.37
2020,11,17,08,09,992.43
2020,11,17,08,10,992.45
2020,11,17,08,11,992.47
2020,11,17,08,12,992.51
2020,11,17,08,13,992.49
2020,11,17,08,14,992.53
2020,11,17,08,15,992.56
2020,11,17,08,16,992.56
2020,11,17,08,17,992.54
2020,11,17,08,18,992.58
2020,11,17,08,19,992.58
2020,11,17,08,20,992.59
2020,11,17,08,21,992.64
2020,11,17,08,22,992.71
2020,11,17,08,23,992.73
2020,11,17,08,24,992.70
2020,11,17,08,25,992.74
2020,11,17,08,26,992.80
2020,11,17,08,27,992.78
2020,11,17,08,28,992.76
2020,11,17,08,29,992.82
2020,11,17,08,30,992.80
2020,11,17,08,31,992.74
2020,11,17,08,32,992.71
2020,11,17,08,33,992.67
2020,11,17,08,34,992.63
2020,11,17,08,35,992.65
2020,11,17,08,36,992.66
2020,11,17,08,37,992.68
2020,11,17,08,38,992.65
2020,11,17,08,39,992.67
2020,11,17,08,40,992.72
2020,11,17,08,41,992.72
2020,11,17,08,42,992.72
2020,11,17,08,43,992.72
2020,11,17,08,44,992.74
2020,11,17,08,45,992.79
2020,11,17,08,46,992.80
2020,11,17,08,47,992.83
2020,11,17,08,48,992.85
2020,11,17,08,49,992.85
2020,11,17,08,50,992.93
2020,11,17,08,51,992.95
2020,11,17,08,52,992.92
2020,11,17,08,53,992.92
2020,11,17,08,54,992.93
2020,11,17,08,55,992.96
2020,11,17,08,57,1000.96
2020,11,17,08,58,1000.99
2020,11,17,08,59,1001.02
2020,11,17,09,00,1001.02
2020,11,17,09,01,1001.02
2020,11,17,09,02,1001.03
2020,11,17,09,03,1001.06
2020,11,17,09,04,1001.08
2020,11,17,09,05,1001.09
2020,11,17,09,06,1001.11
2020,11,17,09,07,1001.08
2020,11,17,09,08,1001.08
2020,11,17,09,09,1001.08
2020,11,17,09,10,1001.08
2020,11,17,09,11,1001.08
2020,11,17,09,12,1001.07
2020,11,17,09,13,1001.05
2020,11,17,09,14,1001.05
2020,11,17,09,15,1001.04
2020,11,17,09,16,1001.03
2020,11,17,09,17,1001.05
2020,11,17,09,18,1001.05
2020,11,17,09,19,1001.05
2020,11,17,09,20,1001.06
2020,11,17,09,21,1001.07
2020,11,17,09,22,1001.05
2020,11,17,09,23,1001.07
2020,11,17,09,24,1001.11
2020,11,17,09,25,1001.08
2020,11,17,09,26,1001.09
2020,11,17,09,27,1001.11
2020,11,17,09,28,1001.08
2020,11,17,09,29,1001.08
2020,11,17,09,30,1001.07
2020,11,17,09,31,1001.06
2020,11,17,09,32,1001.08
2020,11,17,09,33,1001.07
2020,11,17,09,34,1001.07
2020,11,17,09,35,1001.12
2020,11,17,09,36,1001.11
2020,11,17,09,37,1001.09
2020,11,17,09,38,1001.10
2020,11,17,09,39,1001.07
2020,11,17,09,40,1001.12
2020,11,17,09,41,1001.13
2020,11,17,09,42,1001.14
2020,11,17,09,43,1001.13
2020,11,17,09,44,1001.15
2020,11,17,09,45,1001.15
2020,11,17,09,46,1001.16
2020,11,17,09,47,1001.17
2020,11,17,09,48,1001.13
2020,11,17,09,49,1001.14
2020,11,17,09,50,1001.12
2020,11,17,09,51,1001.13
2020,11,17,09,52,1001.15
2020,11,17,09,53,1001.16
2020,11,17,09,54,1001.19
2020,11,17,09,55,1001.19
2020,11,17,09,56,1001.19
2020,11,17,09,57,1001.19
2020,11,17,09,58,1001.20
2020,11,17,09,59,1001.22
2020,11,17,10,00,1001.21
2020,11,17,10,01,1001.21
2020,11,17,10,02,1001.25
2020,11,17,10,03,1001.25
2020,11,17,10,04,1001.26
2020,11,17,10,05,1001.30
2020,11,17,10,06,1001.33
2020,11,17,10,07,1001.37
2020,11,17,10,08,1001.39
2020,11,17,10,09,1001.41
2020,11,17,10,10,1001.46
2020,11,17,10,11,1001.47
2020,11,17,10,12,1001.50
2020,11,17,10,13,1001.53
2020,11,17,10,14,1001.56
2020,11,17,10,15,1001.58
2020,11,17,10,16,1001.63
2020,11,17,10,17,1001.63
2020,11,17,10,18,1001.65
2020,11,17,10,19,1001.69
2020,11,17,10,20,1001.70
2020,11,17,10,21,1001.74
2020,11,17,10,22,1001.78
2020,11,17,10,23,1001.84
2020,11,17,10,24,1001.87
2020,11,17,10,25,1001.90
2020,11,17,10,26,1001.91
2020,11,17,10,27,1001.94
2020,11,17,10,28,1001.99
2020,11,17,10,29,1002.02
2020,11,17,10,30,1002.01
2020,11,17,10,31,1002.03
2020,11,17,10,32,1002.04
2020,11,17,10,33,1002.08
2020,11,17,10,34,1002.09
2020,11,17,10,35,1002.07
2020,11,17,10,36,1002.08
2020,11,17,10,37,1002.10
2020,11,17,10,38,1002.10
2020,11,17,10,39,1002.09
2020,11,17,10,40,1002.08
2020,11,17,10,41,1002.12
2020,11,17,10,42,1002.15
2020,11,17,10,43,1002.12
2020,11,17,10,44,1002.16
2020,11,17,10,45,1002.10
2020,11,17,10,46,1002.05
2020,11,17,10,47,1002.07
2020,11,17,10,48,1001.99
2020,11,17,10,49,1001.96
2020,11,17,10,50,1001.93
2020,11,17,10,51,1001.91
2020,11,17,10,52,1001.88
2020,11,17,10,53,1001.93
2020,11,17,10,54,1001.93
2020,11,17,10,55,1001.92
2020,11,17,10,56,1001.94
2020,11,17,10,57,1002.01
2020,11,17,10,58,1001.97
2020,11,17,10,59,1001.97
2020,11,17,11,00,1001.97
2020,11,17,11,01,1001.96
2020,11,17,11,02,1001.94
2020,11,17,11,03,1001.98
2020,11,17,11,04,1001.99
2020,11,17,11,05,1001.97
2020,11,17,11,06,1001.98
2020,11,17,11,07,1002.00
2020,11,17,11,08,1002.00
2020,11,17,11,09,1002.00
2020,11,17,11,10,1002.01
2020,11,17,11,11,1002.04
2020,11,17,11,12,1002.07
2020,11,17,11,13,1002.08
2020,11,17,11,14,1002.08
2020,11,17,11,15,1002.04
2020,11,17,11,16,1002.05
2020,11,17,11,17,1002.03
2020,11,17,11,18,1002.08
2020,11,17,11,19,1002.04
2020,11,17,11,20,1002.08
2020,11,17,11,21,1002.10
2020,11,17,11,22,1002.10
2020,11,17,11,23,1002.10
2020,11,17,11,24,1002.10
2020,11,17,11,25,1002.10
2020,11,17,11,26,1002.11
2020,11,17,11,27,1002.14
2020,11,17,11,28,1002.15
2020,11,17,11,29,1002.11
2020,11,17,11,30,1002.14
2020,11,17,11,31,1002.16
2020,11,17,11,32,1002.13
2020,11,17,11,33,1002.13
2020,11,17,11,34,1002.14
2020,11,17,11,35,1002.18
2020,11,17,11,36,1002.20
2020,11,17,11,37,1002.20
2020,11,17,11,38,1002.21
2020,11,17,11,39,1002.24
2020,11,17,11,40,1002.24
2020,11,17,11,41,1002.26
2020,11,17,11,42,1002.30
2020,11,17,11,43,1002.30
2020,11,17,11,44,1002.31
2020,11,17,11,45,1002.33
2020,11,17,11,46,1002.32
2020,11,17,11,47,1002.37
2020,11,17,11,48,1002.37
2020,11,17,11,49,1002.37
2020,11,17,11,50,1002.37
2020,11,17,11,51,1002.37
2020,11,17,11,52,1002.37
2020,11,17,11,53,1002.38
2020,11,17,11,54,1002.41
2020,11,17,11,55,1002.41
2020,11,17,11,56,1002.42
2020,11,17,11,57,1002.44
2020,11,17,11,58,1002.45
2020,11,17,11,59,1002.47
2020,11,17,12,00,1002.47
2020,11,17,12,01,1002.47
2020,11,17,12,02,1002.47
2020,11,17,12,03,1002.48
2020,11,17,12,04,1002.52
2020,11,17,12,05,1002.54
2020,11,17,12,06,1002.52
2020,11,17,12,07,1002.47
2020,11,17,12,08,1002.47
2020,11,17,12,09,1002.48
2020,11,17,12,10,1002.52
2020,11,17,12,11,1002.53
2020,11,17,12,12,1002.52
2020,11,17,12,13,1002.55
2020,11,17,12,14,1002.57
2020,11,17,12,15,1002.56
2020,11,17,12,16,1002.55
2020,11,17,12,17,1002.58
2020,11,17,12,18,1002.62
2020,11,17,12,19,1002.64
2020,11,17,12,20,1002.64
2020,11,17,12,21,1002.64
2020,11,17,12,22,1002.64
2020,11,17,12,23,1002.63
2020,11,17,12,24,1002.62
2020,11,17,12,25,1002.64
2020,11,17,12,26,1002.65
2020,11,17,12,27,1002.69
2020,11,17,12,28,1002.71
2020,11,17,12,29,1002.70
2020,11,17,12,30,1002.69
2020,11,17,12,31,1002.72
2020,11,17,12,32,1002.74
2020,11,17,12,33,1002.74
2020,11,17,12,34,1002.75
2020,11,17,12,35,1002.80
2020,11,17,12,36,1002.83
2020,11,17,12,37,1002.76
2020,11,17,12,38,1002.72
2020,11,17,12,39,1002.74
2020,11,17,12,40,1002.74
2020,11,17,12,41,1002.74
2020,11,17,12,42,1002.76
2020,11,17,12,43,1002.81
2020,11,17,12,44,1002.82
2020,11,17,12,45,1002.86
2020,11,17,12,46,1002.88
2020,11,17,12,47,1002.88
2020,11,17,12,48,1002.87
2020,11,17,12,49,1002.86
2020,11,17,12,50,1002.89
2020,11,17,12,51,1002.90
2020,11,17,12,52,1002.89
2020,11,17,12,53,1002.92
2020,11,17,12,54,1002.95
2020,11,17,12,55,1002.94
2020,11,17,12,56,1002.91
2020,11,17,12,57,1002.92
2020,11,17,12,58,1002.95
2020,11,17,12,59,1002.96
2020,11,17,13,00,1002.96
2020,11,17,13,01,1002.93
2020,11,17,13,02,1002.98
2020,11,17,13,03,1002.97
2020,11,17,13,04,1002.96
2020,11,17,13,05,1002.98
2020,11,17,13,06,1002.98
2020,11,17,13,07,1002.98
2020,11,17,13,08,1002.98
2020,11,17,13,09,1002.98
2020,11,17,13,10,1003.01
2020,11,17,13,11,1003.06
2020,11,17,13,12,1003.03
2020,11,17,13,13,1003.09
2020,11,17,13,14,1003.11
2020,11,17,13,15,1003.09
2020,11,17,13,16,1003.13
2020,11,17,13,17,1003.15
2020,11,17,13,18,1003.16
2020,11,17,13,19,1003.18
2020,11,17,13,20,1003.19
2020,11,17,13,21,1003.21
2020,11,17,13,22,1003.19
2020,11,17,13,23,1003.22
2020,11,17,13,24,1003.23
2020,11,17,13,25,1003.25
2020,11,17,13,26,1003.27
2020,11,17,13,27,1003.30
2020,11,17,13,28,1003.27
2020,11,17,13,29,1003.32
2020,11,17,13,30,1003.33
2020,11,17,13,31,1003.35
2020,11,17,13,32,1003.36
2020,11,17,13,33,1003.40
2020,11,17,13,34,1003.41
2020,11,17,13,35,1003.40
2020,11,17,13,36,1003.43
2020,11,17,13,37,1003.47
2020,11,17,13,38,1003.49
2020,11,17,13,39,1003.50
2020,11,17,13,40,1003.54
2020,11,17,13,41,1003.58
2020,11,17,13,42,1003.55
2020,11,17,13,43,1003.52
2020,11,17,13,44,1003.53
2020,11,17,13,45,1003.57
2020,11,17,13,46,1003.59
2020,11,17,13,47,1003.59
2020,11,17,13,48,1003.59
2020,11,17,13,49,1003.60
2020,11,17,13,50,1003.63
2020,11,17,13,51,1003.67
2020,11,17,13,52,1003.67
2020,11,17,13,53,1003.64
2020,11,17,13,54,1003.68
2020,11,17,13,55,1003.67
2020,11,17,13,56,1003.71
2020,11,17,13,57,1003.76
2020,11,17,13,58,1003.76
2020,11,17,13,59,1003.75
2020,11,17,14,00,1003.74
2020,11,17,14,01,1003.77
2020,11,17,14,02,1003.80
2020,11,17,14,03,1003.84
2020,11,17,14,04,1003.85
2020,11,17,14,05,1003.84
2020,11,17,14,06,1003.85
2020,11,17,14,07,1003.84
2020,11,17,14,08,1003.87
2020,11,17,14,09,1003.91
2020,11,17,14,10,1003.92
2020,11,17,14,11,1003.91
2020,11,17,14,12,1003.93
2020,11,17,14,13,1003.92
2020,11,17,14,14,1003.93
2020,11,17,14,15,1004.00
2020,11,17,14,16,1004.01
2020,11,17,14,17,1004.03
2020,11,17,14,18,1004.04
2020,11,17,14,19,1004.11
2020,11,17,14,20,1004.18
2020,11,17,14,21,1004.13
2020,11,17,14,22,1004.14
2020,11,17,14,23,1004.18
2020,11,17,14,24,1004.20
2020,11,17,14,25,1004.20
2020,11,17,14,26,1004.21
2020,11,17,14,27,1004.24
2020,11,17,14,28,1004.27
2020,11,17,14,29,1004.27
2020,11,17,14,30,1004.28
2020,11,17,14,31,1004.31
2020,11,17,14,32,1004.34
2020,11,17,14,33,1004.34
2020,11,17,14,34,1004.35
2020,11,17,14,35,1004.37
2020,11,17,14,36,1004.39
2020,11,17,14,37,1004.43
2020,11,17,14,38,1004.41
2020,11,17,14,39,1004.44
2020,11,17,14,40,1004.44
2020,11,17,14,41,1004.45
2020,11,17,14,42,1004.48
2020,11,17,14,43,1004.51
2020,11,17,14,44,1004.55
2020,11,17,14,45,1004.58
2020,11,17,14,46,1004.61
2020,11,17,14,47,1004.61
2020,11,17,14,48,1004.61
2020,11,17,14,49,1004.63
2020,11,17,14,50,1004.68
2020,11,17,14,51,1004.70
2020,11,17,14,52,1004.68
2020,11,17,14,53,1004.71
2020,11,17,14,54,1004.72
2020,11,17,14,55,1004.74
2020,11,17,14,56,1004.74
2020,11,17,14,57,1004.74
2020,11,17,14,58,1004.74
2020,11,17,14,59,1004.74
2020,11,17,15,00,1004.76
2020,11,17,15,01,1004.81
2020,11,17,15,02,1004.81
2020,11,17,15,03,1004.83
2020,11,17,15,04,1004.88
2020,11,17,15,05,1004.88
2020,11,17,15,06,1004.89
2020,11,17,15,07,1004.91
2020,11,17,15,08,1004.91
2020,11,17,15,09,1004.91
2020,11,17,15,10,1004.92
2020,11,17,15,11,1004.96
2020,11,17,15,12,1004.99
2020,11,17,15,13,1005.01
2020,11,17,15,14,1005.02
2020,11,17,15,15,1005.05
2020,11,17,15,16,1005.06
2020,11,17,15,17,1005.09
2020,11,17,15,18,1005.12
2020,11,17,15,19,1005.15
2020,11,17,15,20,1005.16
2020,11,17,15,21,1005.18
2020,11,17,15,22,1005.19
2020,11,17,15,23,1005.23
2020,11,17,15,24,1005.24
2020,11,17,15,25,1005.24
2020,11,17,15,26,1005.26
2020,11,17,15,27,1005.23
2020,11,17,15,28,1005.25
2020,11,17,15,29,1005.26
2020,11,17,15,30,1005.29
2020,11,17,15,31,1005.32
2020,11,17,15,32,1005.32
2020,11,17,15,33,1005.33
2020,11,17,15,34,1005.35
2020,11,17,15,35,1005.36
2020,11,17,15,36,1005.39
2020,11,17,15,37,1005.41
2020,11,17,15,38,1005.45
2020,11,17,15,39,1005.46
2020,11,17,15,40,1005.49
2020,11,17,15,41,1005.50
2020,11,17,15,42,1005.53
2020,11,17,15,43,1005.54
2020,11,17,15,44,1005.54
2020,11,17,15,45,1005.58
2020,11,17,15,46,1005.56
2020,11,17,15,47,1005.58
2020,11,17,15,48,1005.56
2020,11,17,15,49,1005.61
2020,11,17,15,50,1005.66
2020,11,17,15,51,1005.66
2020,11,17,15,52,1005.66
2020,11,17,15,53,1005.67
2020,11,17,15,54,1005.69
2020,11,17,15,55,1005.71
2020,11,17,15,56,1005.75
2020,11,17,15,57,1005.72
2020,11,17,15,58,1005.73
2020,11,17,15,59,1005.75
2020,11,17,16,00,1005.73
2020,11,17,16,01,1005.77
2020,11,17,16,02,1005.79
2020,11,17,16,03,1005.80
2020,11,17,16,04,1005.84
2020,11,17,16,05,1005.86
2020,11,17,16,06,1005.86
2020,11,17,16,07,1005.87
2020,11,17,16,08,1005.90
2020,11,17,16,09,1005.93
2020,11,17,16,10,1005.93
2020,11,17,16,11,1005.94
2020,11,17,16,12,1005.97
2020,11,17,16,13,1005.99
2020,11,17,16,14,1005.99
2020,11,17,16,15,1006.00
2020,11,17,16,16,1006.05
2020,11,17,16,17,1006.09
2020,11,17,16,18,1006.08
2020,11,17,16,19,1006.12
2020,11,17,16,20,1006.10
2020,11,17,16,21,1006.10
2020,11,17,16,22,1006.12
2020,11,17,16,23,1006.16
2020,11,17,16,24,1006.16
2020,11,17,16,25,1006.16
2020,11,17,16,26,1006.17
2020,11,17,16,27,1006.20
2020,11,17,16,28,1006.22
2020,11,17,16,29,1006.25
2020,11,17,16,30,1006.20
2020,11,17,16,31,1006.21
2020,11,17,16,32,1006.24
2020,11,17,16,33,1006.28
2020,11,17,16,34,1006.32
2020,11,17,16,35,1006.37
2020,11,17,16,36,1006.38
2020,11,17,16,37,1006.40
2020,11,17,16,38,1006.42
2020,11,17,16,39,1006.47
2020,11,17,16,40,1006.49
2020,11,17,16,41,1006.53
2020,11,17,16,42,1006.50
2020,11,17,16,43,1006.52
2020,11,17,16,44,1006.58
2020,11,17,16,45,1006.61
2020,11,17,16,46,1006.63
2020,11,17,16,47,1006.61
2020,11,17,16,48,1006.65
2020,11,17,16,49,1006.68
2020,11,17,16,50,1006.71
2020,11,17,16,51,1006.71
2020,11,17,16,52,1006.71
2020,11,17,16,53,1006.72
2020,11,17,16,54,1006.75
2020,11,17,16,55,1006.77
2020,11,17,16,56,1006.78
2020,11,17,16,57,1006.83
2020,11,17,16,58,1006.88
2020,11,17,16,59,1006.87
2020,11,17,17,00,1006.86
2020,11,17,17,01,1006.92
2020,11,17,17,02,1006.94
2020,11,17,17,03,1006.95
2020,11,17,17,04,1006.99
2020,11,17,17,05,1007.00
2020,11,17,17,06,1006.99
2020,11,17,17,07,1007.01
2020,11,17,17,08,1007.03
2020,11,17,17,09,1007.08
2020,11,17,17,10,1007.10
2020,11,17,17,11,1007.14
2020,11,17,17,12,1007.11
2020,11,17,17,13,1007.13
2020,11,17,17,14,1007.18
2020,11,17,17,15,1007.18
2020,11,17,17,16,1007.19
2020,11,17,17,17,1007.21
2020,11,17,17,18,1007.22
2020,11,17,17,19,1007.25
2020,11,17,17,20,1007.26
2020,11,17,17,21,1007.27
2020,11,17,17,22,1007.26
2020,11,17,17,23,1007.27
2020,11,17,17,24,1007.26
2020,11,17,17,25,1007.29
2020,11,17,17,26,1007.32
2020,11,17,17,27,1007.35
2020,11,17,17,28,1007.43
2020,11,17,17,29,1007.44
2020,11,17,17,30,1007.43
2020,11,17,17,31,1007.47
2020,11,17,17,32,1007.52
2020,11,17,17,33,1007.53
2020,11,17,17,34,1007.55
2020,11,17,17,35,1007.55
2020,11,17,17,36,1007.56
2020,11,17,17,37,1007.58
2020,11,17,17,38,1007.55
2020,11,17,17,39,1007.57
2020,11,17,17,40,1007.62
2020,11,17,17,41,1007.63
2020,11,17,17,42,1007.65
2020,11,17,17,43,1007.66
2020,11,17,17,44,1007.70
2020,11,17,17,45,1007.72
2020,11,17,17,46,1007.73